Weather in Peremishl

Russia / Kaluga Oblast     54°15′50″N   36°09′35″E
temp.,
°C
wind,
m/s
gust,
m/s
humid.,
%
clouds,
%
prec.,
mm/h
press.,
hPa
HPBL,
m
25 february, thu
thu2500:00−9sw4895100 0.1 1029293
03:00−7sw4895100 0.1 1026280
06:00−2wsw61396100 0.0 1022633
09:00+2wsw515100100 0.0 1019560
12:00+3w613100100 0.1 1017358
15:00+3w410100100 0.1 1017255
18:00+3w512100100 0.2 1017285
21:00+2wnw412100100 0.3 1017320
26 february, fri
fri2600:00+2w51399100 0.0 1017333
03:00+3w511100100 0.0 1016260
06:00+2w51199100 0.1 1015346
09:00+2wsw51499100 0.1 1013409
12:00+2w61498100 0.1 1010662
15:00+3w71799100 0.3 1009623
18:00+2w61494100 0.0 1007657
21:00+2w51491100 0.1 1008693
27 february, sat
sat2700:00+1w51291100 0.0 1007564
03:00+1w61197100 0.1 1007520
06:00+1wnw51197100 0.2 1005544
09:00+1wnw51098100 0.4 1005510
12:00+1wnw5109698 0.1 1006591
15:00+1nw5109799 0.2 1008640
18:00+1nnw41188100 0.1 1009734
21:00−2n4129083 0.1 1012660
28 february, sun
sun2800:00−4n4109139 0.0 1014540
03:00−5n3109366 0.0 1016559
06:00−5nnw399587 0.0 1017439
09:00−3n499290 0.4 1019634
12:00−2n588493 0.1 1020806
15:00−1n478196 0.1 1021880
18:00−2nnw3889100 0.1 1022498
21:00−3n3890100 0.1 1024485
1 march, mon
mon100:00−5nnw259394 0.0 1026168
03:00−4nnw258797 0.1 1027273
06:00−4wnw3688100 0.0 1028234
09:00−4w379177 0.0 1028280
12:00−2w488929 0.0 1027377
15:000w6109260 0.0 1026588
18:000w51291100 0.0 1024704
21:000w51392100 0.0 1022521